Regional Weather Roundup
Issued by NWS

Home | Current Version | Previous Version | Text Only | Print | Product List | Glossary On
Versions: 1 2 3 4 5 6 7 8 9 10 11 12 13 14 15 16 17 18 19 20 21 22 23 24 25 26 27 28 29 30 31 32 33 34 35 36 37 38 39 40 41 42 43 44 45 46 47 48 49 50
000
ASUS43 KLOT 080212
RWRIL

ILLINOIS REGIONAL WEATHER ROUNDUP
NATIONAL WEATHER SERVICE CHICAGO/ROMEOVILLE IL
800 PM CST WED DEC 07 2016

NOTE: "FAIR" INDICATES FEW OR NO CLOUDS BELOW 12,000 FEET WITH NO
SIGNIFICANT WEATHER AND/OR OBSTRUCTIONS TO VISIBILITY.

* THESE STATIONS ARE NOT UNDER NWS QUALITY CONTROL. THEY ALSO MAY NOT
  REPORT WEATHER SUCH AS PRECIPITATION OR FOG.

ILZ001-002-007-009-015-016-024-080300-
NORTHWEST ILLINOIS

CITY           SKY/WX    TMP DP  RH WIND       PRES   REMARKS
MOLINE         CLOUDY    25  14  63 W20G28    30.23R WCI  11
STERLING*      FLURRIES  24  18  77 W17       30.20S WCI  11
SAVANNA*       CLOUDY    25  15  67 W13G21    30.19S WCI  13
$$

ILZ003-004-008-010-011-017-018-080300-
NORTH CENTRAL ILLINOIS

CITY           SKY/WX    TMP DP  RH WIND       PRES   REMARKS
ROCKFORD       FLURRIES  23  14  68 W12       30.17F WCI  12
FREEPORT*      CLOUDY    22  15  73 W15G29    30.17F WCI   9
ROCHELLE*      CLOUDY    23  16  75 W17G26    30.18F WCI   9
DE KALB*       CLOUDY    22  15  75 W21       30.16R WCI   7
$$

ILZ005-006-012>014-019>023-080300-
NORTHEAST ILLINOIS

CITY           SKY/WX    TMP DP  RH WIND       PRES   REMARKS
CHICAGO-OHARE  CLOUDY    23  15  71 W23G33    30.13R WCI   7
CHICAGO-MIDWAY MOCLDY    24  14  65 W22G32    30.15R WCI   9
AURORA         CLOUDY    24  16  71 W25       30.16F WCI   8
LANSING*       MOCLDY    25  19  79 W14G28    30.15S WCI  13
JOLIET*        MOCLDY    25  17  72 W15G25    30.18S WCI  13
WAUKEGAN       CLOUDY    22  13  68 W12G22    30.10R WCI  10
DUPAGE AIRPORT CLOUDY    22  14  71 W22G31    30.15R WCI   6
KANKAKEE*      CLEAR     26  19  74 W18G25    30.18F WCI  12
WHEELING       CLOUDY    22  14  71 W13G30    30.15R WCI  10
MORRIS*        MOCLDY    24  17  76 W22       30.18S WCI   9
ROMEOVILLE*    CLOUDY    24  20  86 W21G30    30.16F WCI   9
NORTHERLY ISL    N/A     25  17  72 W16         N/A  WCI  12
$$

LMZ740>746-080300-
SOUTHERN LAKE MICHIGAN

STATION/POSITION SKY/WX   TEMP    WIND        PRES    VSBY  WAVE
                          AIR SEA DIR/SP/G                  HT/PER
                          (F)     (DEG/KT/KT) (MB)    (MI)  (FT/S)
HARRISON CRIB              26     270/ 23/ 29   N/A
BURNHAM HARBOR             24     260/ 13/ 23   N/A
CALUMET HARBOR             25     260/ 14/ 27 1020.0R
BURNS HARBOR               29     270/ 24/ 34 1020.3S
MICHIGAN CITY              29     230/ 31/ 38   N/A
$$

ILZ025>027-034>036-040-047-049-050-058-095>099-080300-
WEST-CENTRAL ILLINOIS

CITY           SKY/WX    TMP DP  RH WIND       PRES   REMARKS
QUINCY         CLEAR     26  15  63 NW16      30.30R WCI  14
GALESBURG*     PTCLDY    23  15  70 W15       30.25R WCI  10
MACOMB*        MOCLDY    25  17  73 NW13      30.30R WCI  13
JACKSONVILLE*  PTCLDY    27  18  69 NW8       30.29R WCI  19
PITTSFIELD*    PTCLDY    28  18  66 W5        30.30R WCI  23
$$

ILZ028>032-037-038-041>044-048-051>054-059>061-080300-
CENTRAL ILLINOIS

CITY           SKY/WX    TMP DP  RH WIND       PRES   REMARKS
PONTIAC        PTCLDY    27  19  74 W18G25    30.21S WCI  13
BLOOMINGTON    CLOUDY    26  18  71 W16G22    30.22R WCI  14
DECATUR        PTCLDY    29  19  66 W12       30.24R WCI  19
PEORIA         PTCLDY    26  16  65 W12       30.25R WCI  16
LACON*         PTCLDY    25  16  69 W10G21    30.23R WCI  15
LINCOLN*       PTCLDY    29  19  67 W5        30.25R WCI  24
SPRINGFIELD    PTCLDY    29  19  66 W8        30.27R WCI  21
TAYLORVILLE    CLOUDY    30  20  68 W13       30.26R WCI  20
$$

ILZ033-039-045-046-055>057-062-063-080300-
EAST-CENTRAL ILLINOIS

CITY           SKY/WX    TMP DP  RH WIND       PRES   REMARKS
CHAMPAIGN      MOCLDY    29  21  72 W12       30.22S WCI  19
RANTOUL*       PTCLDY    30  23  75 W13G18    30.21S WCI  20
MATTOON        MOCLDY    30  22  72 W10       30.22S WCI  21
PARIS*         CLEAR     29  26  86 W8        30.22F WCI  21
$$

ILZ079-100>102-080300-
SOUTHWEST ILLINOIS

CITY           SKY/WX    TMP DP  RH WIND       PRES   REMARKS
ALTON          CLOUDY    32  19  59 W9        30.29R WCI  24
BELLEVILLE     CLOUDY    35  19  52 NW8       30.27S WCI  29
CAHOKIA*       CLOUDY    36  19  50 NW12      30.30R WCI  28
SPARTA*        CLOUDY    35  21  58 NW6       30.29R WCI  30
$$

ILZ064>066-069>071-074>076-080>082-084>086-088>090-092>094-080300-
SOUTH-CENTRAL ILLINOIS

CITY           SKY/WX    TMP DP  RH WIND       PRES   REMARKS
CARBONDALE     CLOUDY    35  23  61 NW6       30.27S WCI  30
CAIRO*         CLOUDY    37  25  61 N8        30.27R WCI  31
EFFINGHAM*     CLOUDY    33  25  75 W9        30.26S WCI  25
MARION           N/A     36  25  64 CALM      30.27S
CENTRALIA*     CLOUDY    34  24  65 W8        30.26S WCI  28
SALEM*         CLOUDY    35  23  61 W6        30.26S WCI  30
METROPOLIS*    CLOUDY    37  22  54 CALM      30.27S
$$

ILZ067-068-072-073-078-083-087-091-080300-
SOUTHEAST ILLINOIS

CITY           SKY/WX    TMP DP  RH WIND       PRES   REMARKS
LAWRENCEVILLE  CLOUDY    34  24  67 W7        30.24S WCI  28
FLORA*         PTCLDY    35  24  64 NW9       30.26S WCI  27
FAIRFIELD*     CLOUDY    33  24  68 CALM      30.25S
HARRISBURG*    CLOUDY    35  25  67 NW5       30.27S WCI  31
ROBINSON*      CLOUDY    32  24  73 W9        30.25R WCI  24
CARMI*         CLOUDY    33  27  77 NW8       30.25S WCI  26
$$

ABBREVIATIONS USED IN REMARKS
   TC - TEMPERATURE IN CELSIUS
  WCI - WIND CHILL INDEX
   HX - HEAT INDEX
  VSB - VISIBILITY
$$




USA.gov is the U.S. government's official web portal to all federal, state and local government web resources and services.